Time,TemperatureF,DewpointF,PressureIn,WindDirection,WindDirectionDegrees,WindSpeedMPH,WindSpeedGustMPH,Humidity,HourlyPrecipIn,Conditions,Clouds,dailyrainin,SoftwareType,DateUTC
2013-01-02 00:02:00,-15.2,-19.3,31.13,WSW,247,0.0,1.0,81,0.00,,,0.00,meteohub,2013-01-02 07:02:00,
2013-01-02 00:07:00,-15.2,-19.3,31.14,WSW,247,0.0,1.0,81,0.00,,,0.00,meteohub,2013-01-02 07:07:00,
2013-01-02 00:12:00,-15.0,-19.1,31.14,WSW,247,0.0,1.0,81,0.00,,,0.00,meteohub,2013-01-02 07:12:00,
2013-01-02 00:22:00,-15.0,-18.9,31.14,WSW,247,0.0,1.0,82,0.00,,,0.00,meteohub,2013-01-02 07:22:00,
2013-01-02 00:27:00,-14.3,-17.9,31.14,WSW,247,0.0,0.0,83,0.00,,,0.00,meteohub,2013-01-02 07:27:00,
2013-01-02 00:32:00,-13.9,-17.5,31.14,WSW,247,0.0,0.0,83,0.00,,,0.00,meteohub,2013-01-02 07:32:00,
2013-01-02 00:37:00,-14.1,-18.2,31.15,WSW,247,0.0,0.0,81,0.00,,,0.00,meteohub,2013-01-02 07:37:00,
2013-01-02 00:42:00,-14.4,-19.1,31.14,WSW,247,0.0,0.0,79,0.00,,,0.00,meteohub,2013-01-02 07:42:00,
2013-01-02 00:47:00,-14.8,-19.1,31.14,WSW,247,0.0,1.0,80,0.00,,,0.00,meteohub,2013-01-02 07:47:00,
2013-01-02 00:57:00,-14.6,-18.8,31.14,WSW,247,0.0,1.0,81,0.00,,,0.00,meteohub,2013-01-02 07:57:00,
2013-01-02 01:02:00,-14.6,-18.8,31.14,WSW,247,1.0,2.0,81,0.00,,,0.00,meteohub,2013-01-02 08:02:00,
2013-01-02 01:07:00,-14.4,-18.4,31.15,WSW,247,0.0,2.0,82,0.00,,,0.00,meteohub,2013-01-02 08:07:00,
2013-01-02 01:12:00,-14.4,-18.4,31.15,WSW,247,0.0,2.0,82,0.00,,,0.00,meteohub,2013-01-02 08:12:00,
2013-01-02 01:17:00,-14.3,-18.4,31.15,WSW,247,0.0,1.0,81,0.00,,,0.00,meteohub,2013-01-02 08:17:00,
2013-01-02 01:22:00,-14.4,-18.6,31.15,WSW,247,0.0,1.0,81,0.00,,,0.00,meteohub,2013-01-02 08:22:00,
2013-01-02 01:27:00,-14.4,-18.6,31.15,WSW,247,0.0,1.0,81,0.00,,,0.00,meteohub,2013-01-02 08:27:00,
2013-01-02 01:32:00,-14.4,-18.6,31.14,WSW,247,0.0,0.0,81,0.00,,,0.00,meteohub,2013-01-02 08:32:00,
2013-01-02 01:37:00,-14.3,-18.2,31.15,WSW,247,0.0,0.0,82,0.00,,,0.00,meteohub,2013-01-02 08:37:00,
2013-01-02 01:42:00,-14.4,-18.8,31.15,WSW,247,0.0,1.0,80,0.00,,,0.00,meteohub,2013-01-02 08:42:00,
2013-01-02 01:47:00,-14.6,-18.9,31.15,WSW,247,1.0,1.0,80,0.00,,,0.00,meteohub,2013-01-02 08:47:00,
2013-01-02 01:52:00,-14.4,-18.6,31.15,WSW,247,0.0,1.0,81,0.00,,,0.00,meteohub,2013-01-02 08:52:00,
2013-01-02 01:57:00,-14.3,-18.2,31.15,WSW,247,0.0,1.0,82,0.00,,,0.00,meteohub,2013-01-02 08:57:00,
2013-01-02 02:02:00,-13.5,-17.1,31.15,WSW,247,0.0,1.0,83,0.00,,,0.00,meteohub,2013-01-02 09:02:00,
2013-01-02 02:07:00,-13.0,-16.4,31.15,WSW,247,0.0,0.0,84,0.00,,,0.00,meteohub,2013-01-02 09:07:00,
2013-01-02 02:12:00,-11.9,-15.3,31.15,WSW,247,0.0,0.0,84,0.00,,,0.00,meteohub,2013-01-02 09:12:00,
2013-01-02 02:17:00,-11.6,-15.3,31.15,WSW,247,0.0,1.0,83,0.00,,,0.00,meteohub,2013-01-02 09:17:00,
2013-01-02 02:22:00,-11.7,-15.9,31.15,WSW,247,0.0,1.0,81,0.00,,,0.00,meteohub,2013-01-02 09:22:00,
2013-01-02 02:27:00,-12.5,-17.1,31.15,WSW,247,0.0,2.0,79,0.00,,,0.00,meteohub,2013-01-02 09:27:00,
2013-01-02 02:32:00,-12.8,-17.5,31.15,WSW,247,0.0,2.0,79,0.00,,,0.00,meteohub,2013-01-02 09:32:00,
2013-01-02 02:42:00,-13.2,-17.5,31.15,WSW,247,0.0,1.0,80,0.00,,,0.00,meteohub,2013-01-02 09:42:00,
2013-01-02 02:47:00,-13.2,-17.3,31.16,WSW,247,0.0,1.0,81,0.00,,,0.00,meteohub,2013-01-02 09:47:00,
2013-01-02 02:52:00,-13.2,-17.3,31.16,WSW,247,0.0,1.0,81,0.00,,,0.00,meteohub,2013-01-02 09:52:00,
2013-01-02 02:57:00,-13.5,-18.2,31.16,WSW,247,0.0,1.0,79,0.00,,,0.00,meteohub,2013-01-02 09:57:00,
2013-01-02 03:02:00,-14.3,-19.1,31.16,WSW,247,0.0,1.0,78,0.00,,,0.00,meteohub,2013-01-02 10:02:00,
2013-01-02 03:07:00,-14.4,-19.1,31.16,WSW,247,0.0,1.0,79,0.00,,,0.00,meteohub,2013-01-02 10:07:00,
2013-01-02 03:12:00,-14.1,-18.0,31.16,WSW,247,0.0,1.0,82,0.00,,,0.00,meteohub,2013-01-02 10:12:00,
2013-01-02 03:17:00,-13.7,-17.7,31.16,WSW,247,0.0,1.0,82,0.00,,,0.00,meteohub,2013-01-02 10:17:00,
2013-01-02 03:22:00,-14.1,-18.4,31.17,WSW,247,0.0,1.0,80,0.00,,,0.00,meteohub,2013-01-02 10:22:00,
2013-01-02 03:27:00,-14.4,-18.8,31.17,WSW,247,0.0,2.0,80,0.00,,,0.00,meteohub,2013-01-02 10:27:00,
2013-01-02 03:32:00,-14.6,-18.9,31.17,WSW,247,0.0,2.0,80,0.00,,,0.00,meteohub,2013-01-02 10:32:00,
2013-01-02 03:37:00,-14.8,-19.1,31.17,WSW,247,0.0,2.0,80,0.00,,,0.00,meteohub,2013-01-02 10:37:00,
2013-01-02 03:42:00,-14.6,-18.8,31.17,WSW,247,0.0,1.0,81,0.00,,,0.00,meteohub,2013-01-02 10:42:00,
2013-01-02 03:47:00,-14.8,-19.1,31.17,WSW,247,1.0,1.0,80,0.00,,,0.00,meteohub,2013-01-02 10:47:00,
2013-01-02 03:57:00,-15.9,-20.2,31.16,WSW,247,0.0,2.0,80,0.00,,,0.00,meteohub,2013-01-02 10:57:00,
2013-01-02 04:02:00,-15.5,-19.7,31.16,WSW,247,0.0,2.0,81,0.00,,,0.00,meteohub,2013-01-02 11:02:00,
2013-01-02 04:07:00,-15.5,-19.8,31.16,WSW,247,0.0,1.0,80,0.00,,,0.00,meteohub,2013-01-02 11:07:00,
2013-01-02 04:12:00,-15.9,-20.4,31.16,WSW,247,0.0,1.0,79,0.00,,,0.00,meteohub,2013-01-02 11:12:00,
2013-01-02 04:17:00,-16.1,-20.6,31.16,WSW,247,0.0,1.0,79,0.00,,,0.00,meteohub,2013-01-02 11:17:00,
2013-01-02 04:22:00,-16.1,-20.4,31.16,WSW,247,0.0,1.0,80,0.00,,,0.00,meteohub,2013-01-02 11:22:00,
2013-01-02 04:27:00,-16.4,-20.9,31.16,WSW,247,0.0,1.0,79,0.00,,,0.00,meteohub,2013-01-02 11:27:00,
2013-01-02 04:32:00,-17.0,-21.8,31.16,WSW,247,0.0,1.0,78,0.00,,,0.00,meteohub,2013-01-02 11:32:00,
2013-01-02 04:37:00,-17.1,-22.0,31.16,WSW,247,0.0,1.0,78,0.00,,,0.00,meteohub,2013-01-02 11:37:00,
2013-01-02 04:42:00,-17.1,-22.0,31.16,WSW,247,0.0,1.0,78,0.00,,,0.00,meteohub,2013-01-02 11:42:00,
2013-01-02 04:47:00,-17.7,-22.5,31.16,WSW,247,0.0,1.0,78,0.00,,,0.00,meteohub,2013-01-02 11:47:00,
2013-01-02 04:52:00,-17.7,-22.2,31.16,WSW,247,1.0,0.0,79,0.00,,,0.00,meteohub,2013-01-02 11:52:00,
2013-01-02 05:02:00,-18.2,-22.9,31.16,WSW,247,0.0,2.0,78,0.00,,,0.00,meteohub,2013-01-02 12:02:00,
2013-01-02 05:12:00,-18.4,-22.7,31.16,WSW,247,0.0,1.0,80,0.00,,,0.00,meteohub,2013-01-02 12:12:00,
2013-01-02 05:17:00,-18.4,-22.9,31.16,WSW,247,0.0,1.0,79,0.00,,,0.00,meteohub,2013-01-02 12:17:00,
2013-01-02 05:22:00,-18.6,-23.1,31.16,WSW,247,0.0,1.0,79,0.00,,,0.00,meteohub,2013-01-02 12:22:00,
2013-01-02 05:27:00,-18.8,-23.4,31.17,WSW,247,0.0,1.0,78,0.00,,,0.00,meteohub,2013-01-02 12:27:00,
2013-01-02 05:32:00,-18.9,-23.6,31.17,WSW,247,0.0,1.0,78,0.00,,,0.00,meteohub,2013-01-02 12:32:00,
2013-01-02 05:37:00,-19.1,-23.8,31.17,WSW,247,0.0,0.0,78,0.00,,,0.00,meteohub,2013-01-02 12:37:00,
2013-01-02 05:42:00,-19.3,-23.8,31.17,WSW,247,0.0,0.0,79,0.00,,,0.00,meteohub,2013-01-02 12:42:00,
2013-01-02 05:47:00,-18.9,-23.3,31.17,WSW,247,0.0,0.0,80,0.00,,,0.00,meteohub,2013-01-02 12:47:00,
2013-01-02 05:52:00,-18.2,-22.2,31.17,WSW,247,0.0,0.0,81,0.00,,,0.00,meteohub,2013-01-02 12:52:00,
2013-01-02 05:57:00,-17.9,-21.6,31.17,WSW,247,1.0,0.0,82,0.00,,,0.00,meteohub,2013-01-02 12:57:00,
2013-01-02 06:02:00,-18.8,-23.4,31.17,SSE,167,0.0,3.0,78,0.00,,,0.00,meteohub,2013-01-02 13:02:00,
2013-01-02 06:07:00,-19.3,-24.0,31.17,SSE,167,1.0,3.0,78,0.00,,,0.00,meteohub,2013-01-02 13:07:00,
2013-01-02 06:12:00,-19.5,-24.2,31.17,SSE,167,0.0,3.0,78,0.00,,,0.00,meteohub,2013-01-02 13:12:00,
2013-01-02 06:17:00,-19.1,-23.6,31.18,SSE,167,0.0,1.0,79,0.00,,,0.00,meteohub,2013-01-02 13:17:00,
2013-01-02 06:27:00,-19.3,-24.0,31.18,SSE,167,0.0,1.0,78,0.00,,,0.00,meteohub,2013-01-02 13:27:00,
2013-01-02 06:32:00,-19.8,-24.9,31.18,SSE,167,0.0,0.0,77,0.00,,,0.00,meteohub,2013-01-02 13:32:00,
2013-01-02 06:37:00,-20.4,-25.2,31.18,SSE,167,0.0,0.0,77,0.00,,,0.00,meteohub,2013-01-02 13:37:00,
2013-01-02 06:42:00,-20.4,-25.2,31.18,SSE,167,0.0,0.0,77,0.00,,,0.00,meteohub,2013-01-02 13:42:00,
2013-01-02 06:47:00,-19.1,-23.1,31.18,SSE,167,0.0,0.0,81,0.00,,,0.00,meteohub,2013-01-02 13:47:00,
2013-01-02 06:52:00,-19.1,-23.4,31.18,West,270,0.0,0.0,80,0.00,,,0.00,meteohub,2013-01-02 13:52:00,
2013-01-02 06:57:00,-19.8,-24.9,31.18,West,270,0.0,2.0,77,0.00,,,0.00,meteohub,2013-01-02 13:57:00,
2013-01-02 07:02:00,-20.4,-25.2,31.19,West,270,0.0,2.0,77,0.00,,,0.00,meteohub,2013-01-02 14:02:00,
2013-01-02 07:07:00,-20.4,-25.1,31.19,West,270,0.0,1.0,78,0.00,,,0.00,meteohub,2013-01-02 14:07:00,
2013-01-02 07:12:00,-20.6,-25.2,31.19,West,270,0.0,1.0,78,0.00,,,0.00,meteohub,2013-01-02 14:12:00,
2013-01-02 07:17:00,-20.4,-24.9,31.19,West,270,0.0,1.0,79,0.00,,,0.00,meteohub,2013-01-02 14:17:00,
2013-01-02 07:27:00,-20.9,-25.8,31.20,West,270,0.0,1.0,77,0.00,,,0.00,meteohub,2013-01-02 14:27:00,
2013-01-02 07:32:00,-21.1,-26.0,31.21,West,270,1.0,1.0,77,0.00,,,0.00,meteohub,2013-01-02 14:32:00,
2013-01-02 07:42:00,-21.6,-26.3,31.22,West,270,0.0,1.0,78,0.00,,,0.00,meteohub,2013-01-02 14:42:00,
2013-01-02 07:47:00,-21.3,-25.8,31.22,WSW,246,1.0,1.0,79,0.00,,,0.00,meteohub,2013-01-02 14:47:00,
2013-01-02 07:52:00,-21.5,-26.3,31.22,WSW,243,0.0,1.0,77,0.00,,,0.00,meteohub,2013-01-02 14:52:00,
2013-01-02 07:57:00,-20.9,-25.4,31.22,SSW,192,0.0,3.0,79,0.00,,,0.00,meteohub,2013-01-02 14:57:00,
2013-01-02 08:02:00,-20.4,-24.7,31.22,SSW,192,0.0,3.0,80,0.00,,,0.00,meteohub,2013-01-02 15:02:00,
2013-01-02 08:07:00,-20.2,-24.7,31.22,SSW,192,0.0,3.0,79,0.00,,,0.00,meteohub,2013-01-02 15:07:00,
2013-01-02 08:12:00,-20.4,-25.1,31.22,SSW,192,1.0,1.0,78,0.00,,,0.00,meteohub,2013-01-02 15:12:00,
2013-01-02 08:22:00,-20.2,-24.9,31.22,SSW,192,0.0,2.0,78,0.00,,,0.00,meteohub,2013-01-02 15:22:00,
2013-01-02 08:27:00,-19.8,-24.3,31.23,WSW,239,0.0,2.0,79,0.00,,,0.00,meteohub,2013-01-02 15:27:00,
2013-01-02 08:32:00,-18.9,-22.9,31.22,WSW,239,0.0,1.0,81,0.00,,,0.00,meteohub,2013-01-02 15:32:00,
2013-01-02 08:37:00,-18.0,-22.0,31.22,WSW,239,0.0,1.0,81,0.00,,,0.00,meteohub,2013-01-02 15:37:00,
2013-01-02 08:42:00,-17.1,-21.3,31.22,WSW,239,0.0,1.0,81,0.00,,,0.00,meteohub,2013-01-02 15:42:00,
2013-01-02 08:47:00,-16.4,-20.6,31.22,WSW,239,2.0,0.0,81,0.00,,,0.00,meteohub,2013-01-02 15:47:00,
2013-01-02 08:52:00,-16.4,-20.9,31.23,WSW,239,0.0,2.0,79,0.00,,,0.00,meteohub,2013-01-02 15:52:00,
2013-01-02 08:57:00,-16.1,-20.4,31.23,WSW,239,0.0,2.0,80,0.00,,,0.00,meteohub,2013-01-02 15:57:00,
2013-01-02 09:02:00,-15.7,-20.0,31.23,WSW,239,0.0,2.0,80,0.00,,,0.00,meteohub,2013-01-02 16:02:00,
2013-01-02 09:12:00,-15.0,-19.3,31.23,WSW,239,0.0,1.0,80,0.00,,,0.00,meteohub,2013-01-02 16:12:00,
2013-01-02 09:17:00,-13.9,-17.9,31.23,WSW,239,0.0,1.0,82,0.00,,,0.00,meteohub,2013-01-02 16:17:00,
2013-01-02 09:22:00,-13.4,-17.5,31.23,WSW,239,0.0,1.0,81,0.00,,,0.00,meteohub,2013-01-02 16:22:00,
2013-01-02 09:27:00,-12.5,-16.6,31.22,WSW,239,0.0,1.0,81,0.00,,,0.00,meteohub,2013-01-02 16:27:00,
2013-01-02 09:37:00,-11.6,-16.1,31.22,South,182,0.0,3.0,80,0.00,,,0.00,meteohub,2013-01-02 16:37:00,
2013-01-02 09:42:00,-11.4,-15.9,31.22,South,182,0.0,3.0,80,0.00,,,0.00,meteohub,2013-01-02 16:42:00,
2013-01-02 09:47:00,-10.1,-14.1,31.22,South,182,0.0,2.0,82,0.00,,,0.00,meteohub,2013-01-02 16:47:00,
2013-01-02 09:52:00,-9.0,-12.8,31.21,South,182,2.0,2.0,83,0.00,,,0.00,meteohub,2013-01-02 16:52:00,
2013-01-02 09:57:00,-9.6,-14.3,31.21,South,182,0.0,3.0,79,0.00,,,0.00,meteohub,2013-01-02 16:57:00,
2013-01-02 10:02:00,-9.0,-13.4,31.21,South,182,1.0,3.0,81,0.00,,,0.00,meteohub,2013-01-02 17:02:00,
2013-01-02 10:07:00,-8.1,-12.1,31.21,South,182,0.0,3.0,82,0.00,,,0.00,meteohub,2013-01-02 17:07:00,
2013-01-02 10:12:00,-7.2,-11.6,31.21,South,182,0.0,3.0,81,0.00,,,0.00,meteohub,2013-01-02 17:12:00,
2013-01-02 10:22:00,-6.5,-10.8,31.20,South,182,0.0,2.0,81,0.00,,,0.00,meteohub,2013-01-02 17:22:00,
2013-01-02 10:27:00,-5.8,-9.9,31.19,South,182,0.0,2.0,82,0.00,,,0.00,meteohub,2013-01-02 17:27:00,
2013-01-02 10:32:00,-5.3,-9.6,31.19,SSW,211,1.0,2.0,81,0.00,,,0.00,meteohub,2013-01-02 17:32:00,
2013-01-02 10:42:00,-4.7,-9.0,31.18,SSW,211,1.0,2.0,81,0.00,,,0.00,meteohub,2013-01-02 17:42:00,
2013-01-02 10:47:00,-4.4,-8.5,31.18,SSW,211,3.0,3.0,82,0.00,,,0.00,meteohub,2013-01-02 17:47:00,
2013-01-02 10:52:00,-3.6,-7.8,31.17,SSW,211,0.0,3.0,82,0.00,,,0.00,meteohub,2013-01-02 17:52:00,
2013-01-02 10:57:00,-2.7,-6.9,31.17,SSW,211,1.0,3.0,82,0.00,,,0.00,meteohub,2013-01-02 17:57:00,
2013-01-02 11:02:00,-2.2,-6.5,31.16,SSW,213,1.0,3.0,81,0.00,,,0.00,meteohub,2013-01-02 18:02:00,
2013-01-02 11:07:00,-2.0,-6.7,31.16,SSW,213,0.0,4.0,80,0.00,,,0.00,meteohub,2013-01-02 18:07:00,
2013-01-02 11:12:00,-1.7,-6.0,31.16,WSW,253,2.0,4.0,81,0.00,,,0.00,meteohub,2013-01-02 18:12:00,
2013-01-02 11:17:00,-1.1,-5.8,31.15,WNW,300,0.0,3.0,80,0.00,,,0.00,meteohub,2013-01-02 18:17:00,
2013-01-02 11:22:00,-0.4,-5.1,31.14,WNW,300,1.0,3.0,80,0.00,,,0.00,meteohub,2013-01-02 18:22:00,
2013-01-02 11:32:00,1.2,-3.5,31.13,WNW,300,2.0,4.0,80,0.00,,,0.00,meteohub,2013-01-02 18:32:00,
2013-01-02 11:37:00,2.1,-3.1,31.13,WNW,300,2.0,4.0,78,0.00,,,0.00,meteohub,2013-01-02 18:37:00,
2013-01-02 11:42:00,3.0,-3.1,31.13,WNW,300,2.0,4.0,75,0.00,,,0.00,meteohub,2013-01-02 18:42:00,
2013-01-02 11:47:00,3.6,-3.5,31.12,WNW,302,1.0,4.0,72,0.00,,,0.00,meteohub,2013-01-02 18:47:00,
2013-01-02 11:57:00,5.2,-3.1,31.12,WNW,302,1.0,4.0,68,0.00,,,0.00,meteohub,2013-01-02 18:57:00,
2013-01-02 12:02:00,5.5,-3.3,31.12,WNW,302,4.0,4.0,66,0.00,,,0.00,meteohub,2013-01-02 19:02:00,
2013-01-02 12:07:00,5.5,-3.6,31.12,WNW,302,2.0,4.0,65,0.00,,,0.00,meteohub,2013-01-02 19:07:00,
2013-01-02 12:12:00,6.1,-3.1,31.11,WNW,302,2.0,4.0,65,0.00,,,0.00,meteohub,2013-01-02 19:12:00,
2013-01-02 12:17:00,6.3,-2.4,31.11,WNW,302,2.0,4.0,67,0.00,,,0.00,meteohub,2013-01-02 19:17:00,
2013-01-02 12:22:00,7.0,-2.0,31.10,WNW,302,3.0,4.0,66,0.00,,,0.00,meteohub,2013-01-02 19:22:00,
2013-01-02 12:27:00,7.5,-1.8,31.10,WNW,302,2.0,4.0,65,0.00,,,0.00,meteohub,2013-01-02 19:27:00,
2013-01-02 12:37:00,8.8,-0.6,31.10,WNW,302,2.0,3.0,65,0.00,,,0.00,meteohub,2013-01-02 19:37:00,
2013-01-02 12:42:00,9.1,-0.9,31.09,NW,304,1.0,3.0,63,0.00,,,0.00,meteohub,2013-01-02 19:42:00,
2013-01-02 12:47:00,9.3,-0.8,31.09,NW,304,2.0,5.0,63,0.00,,,0.00,meteohub,2013-01-02 19:47:00,
2013-01-02 12:52:00,9.5,-0.6,31.09,NW,304,1.0,5.0,63,0.00,,,0.00,meteohub,2013-01-02 19:52:00,
2013-01-02 12:57:00,9.3,-1.1,31.08,WNW,302,1.0,4.0,62,0.00,,,0.00,meteohub,2013-01-02 19:57:00,
2013-01-02 13:02:00,9.9,-0.6,31.08,WNW,302,2.0,4.0,62,0.00,,,0.00,meteohub,2013-01-02 20:02:00,
2013-01-02 13:07:00,10.4,-0.4,31.08,WNW,302,1.0,4.0,61,0.00,,,0.00,meteohub,2013-01-02 20:07:00,
2013-01-02 13:12:00,10.9,-0.2,31.08,WNW,302,3.0,3.0,60,0.00,,,0.00,meteohub,2013-01-02 20:12:00,
2013-01-02 13:17:00,11.5,0.3,31.07,WNW,302,3.0,3.0,60,0.00,,,0.00,meteohub,2013-01-02 20:17:00,
2013-01-02 13:22:00,12.0,0.9,31.07,WNW,302,1.0,3.0,60,0.00,,,0.00,meteohub,2013-01-02 20:22:00,
2013-01-02 13:27:00,13.3,1.2,31.07,WNW,302,1.0,3.0,58,0.00,,,0.00,meteohub,2013-01-02 20:27:00,
2013-01-02 13:37:00,15.4,1.4,31.06,WNW,302,1.0,1.0,53,0.00,,,0.00,meteohub,2013-01-02 20:37:00,
2013-01-02 13:42:00,16.3,1.8,31.06,WNW,302,1.0,2.0,52,0.00,,,0.00,meteohub,2013-01-02 20:42:00,
2013-01-02 13:47:00,16.9,1.4,31.06,WNW,302,2.0,2.0,50,0.00,,,0.00,meteohub,2013-01-02 20:47:00,
2013-01-02 13:52:00,15.8,0.9,31.06,WNW,302,0.0,3.0,51,0.00,,,0.00,meteohub,2013-01-02 20:52:00,
2013-01-02 14:02:00,16.0,1.9,31.06,WNW,302,2.0,3.0,53,0.00,,,0.00,meteohub,2013-01-02 21:02:00,
2013-01-02 14:07:00,15.8,1.8,31.06,WNW,302,2.0,3.0,53,0.00,,,0.00,meteohub,2013-01-02 21:07:00,
2013-01-02 14:12:00,15.3,1.2,31.07,WNW,302,2.0,4.0,53,0.00,,,0.00,meteohub,2013-01-02 21:12:00,
2013-01-02 14:17:00,15.3,1.6,31.07,WNW,302,2.0,4.0,54,0.00,,,0.00,meteohub,2013-01-02 21:17:00,
2013-01-02 14:22:00,15.4,2.1,31.07,WNW,302,2.0,4.0,55,0.00,,,0.00,meteohub,2013-01-02 21:22:00,
2013-01-02 14:27:00,16.0,2.3,31.07,WNW,302,1.0,4.0,54,0.00,,,0.00,meteohub,2013-01-02 21:27:00,
2013-01-02 14:32:00,16.0,2.3,31.08,WNW,297,0.0,4.0,54,0.00,,,0.00,meteohub,2013-01-02 21:32:00,
2013-01-02 14:37:00,16.3,3.0,31.08,WNW,297,0.0,5.0,55,0.00,,,0.00,meteohub,2013-01-02 21:37:00,
2013-01-02 14:42:00,17.1,3.2,31.08,WNW,288,3.0,5.0,54,0.00,,,0.00,meteohub,2013-01-02 21:42:00,
2013-01-02 14:52:00,18.1,4.3,31.07,WNW,291,7.0,7.0,54,0.00,,,0.00,meteohub,2013-01-02 21:52:00,
2013-01-02 14:57:00,19.4,5.0,31.08,NW,321,5.0,8.0,53,0.00,,,0.00,meteohub,2013-01-02 21:57:00,
2013-01-02 15:02:00,20.1,4.8,31.08,NNE,17,2.0,11.0,51,0.00,,,0.00,meteohub,2013-01-02 22:02:00,
2013-01-02 15:07:00,20.7,5.0,31.08,NNW,343,5.0,11.0,50,0.00,,,0.00,meteohub,2013-01-02 22:07:00,
2013-01-02 15:12:00,20.7,5.0,31.08,NNW,335,4.0,11.0,50,0.00,,,0.00,meteohub,2013-01-02 22:12:00,
2013-01-02 15:17:00,20.7,5.0,31.08,NW,324,8.0,10.0,50,0.00,,,0.00,meteohub,2013-01-02 22:17:00,
2013-01-02 15:22:00,20.5,5.2,31.08,WNW,291,5.0,11.0,51,0.00,,,0.00,meteohub,2013-01-02 22:22:00,
2013-01-02 15:27:00,20.1,5.4,31.08,NW,311,7.0,11.0,52,0.00,,,0.00,meteohub,2013-01-02 22:27:00,
2013-01-02 15:32:00,20.1,4.8,31.08,WNW,303,3.0,12.0,51,0.00,,,0.00,meteohub,2013-01-02 22:32:00,
2013-01-02 15:37:00,20.3,5.0,31.08,NNW,327,5.0,12.0,51,0.00,,,0.00,meteohub,2013-01-02 22:37:00,
2013-01-02 15:42:00,20.5,4.8,31.08,NNW,332,5.0,12.0,50,0.00,,,0.00,meteohub,2013-01-02 22:42:00,
2013-01-02 15:47:00,20.7,5.0,31.08,NW,309,7.0,10.0,50,0.00,,,0.00,meteohub,2013-01-02 22:47:00,
2013-01-02 15:52:00,20.1,4.5,31.08,NW,306,4.0,10.0,50,0.00,,,0.00,meteohub,2013-01-02 22:52:00,
2013-01-02 15:57:00,19.6,4.5,31.08,NW,318,3.0,8.0,51,0.00,,,0.00,meteohub,2013-01-02 22:57:00,
2013-01-02 16:02:00,19.6,4.8,31.08,NW,311,4.0,8.0,52,0.00,,,0.00,meteohub,2013-01-02 23:02:00,
2013-01-02 16:07:00,19.6,4.8,31.08,NW,308,7.0,7.0,52,0.00,,,0.00,meteohub,2013-01-02 23:07:00,
2013-01-02 16:12:00,19.9,4.6,31.08,NW,325,4.0,8.0,51,0.00,,,0.00,meteohub,2013-01-02 23:12:00,
2013-01-02 16:17:00,19.9,4.3,31.08,NNW,337,6.0,8.0,50,0.00,,,0.00,meteohub,2013-01-02 23:17:00,
2013-01-02 16:27:00,19.2,3.6,31.08,NNW,338,5.0,12.0,50,0.00,,,0.00,meteohub,2013-01-02 23:27:00,
2013-01-02 16:32:00,18.5,3.4,31.08,WNW,296,3.0,12.0,51,0.00,,,0.00,meteohub,2013-01-02 23:32:00,
2013-01-02 16:37:00,17.4,3.2,31.08,NW,324,2.0,12.0,53,0.00,,,0.00,meteohub,2013-01-02 23:37:00,
2013-01-02 16:42:00,16.7,2.5,31.08,WNW,297,3.0,8.0,53,0.00,,,0.00,meteohub,2013-01-02 23:42:00,
2013-01-02 16:47:00,15.6,1.9,31.08,WNW,301,1.0,8.0,54,0.00,,,0.00,meteohub,2013-01-02 23:47:00,
2013-01-02 16:52:00,15.1,1.8,31.08,WNW,301,0.0,8.0,55,0.00,,,0.00,meteohub,2013-01-02 23:52:00,
2013-01-02 16:57:00,14.4,1.9,31.08,NW,321,2.0,4.0,57,0.00,,,0.00,meteohub,2013-01-02 23:57:00,
2013-01-02 17:02:00,14.2,1.8,31.08,WNW,295,2.0,3.0,57,0.00,,,0.00,meteohub,2013-01-03 00:02:00,
2013-01-02 17:12:00,12.4,0.0,31.08,SSE,163,3.0,5.0,57,0.00,,,0.00,meteohub,2013-01-03 00:12:00,
2013-01-02 17:17:00,10.9,-0.9,31.08,SSE,156,4.0,5.0,58,0.00,,,0.00,meteohub,2013-01-03 00:17:00,
2013-01-02 17:27:00,7.2,-3.5,31.09,SSE,168,3.0,6.0,61,0.00,,,0.00,meteohub,2013-01-03 00:27:00,
2013-01-02 17:32:00,6.1,-2.9,31.09,SSE,163,3.0,6.0,66,0.00,,,0.00,meteohub,2013-01-03 00:32:00,
2013-01-02 17:42:00,4.8,-3.5,31.10,South,171,0.0,5.0,68,0.00,,,0.00,meteohub,2013-01-03 00:42:00,
2013-01-02 17:52:00,4.8,-2.7,31.10,ESE,115,1.0,3.0,70,0.00,,,0.00,meteohub,2013-01-03 00:52:00,
2013-01-02 17:57:00,3.7,-4.7,31.11,SSE,159,1.0,3.0,67,0.00,,,0.00,meteohub,2013-01-03 00:57:00,
2013-01-02 18:07:00,2.3,-5.8,31.12,SSE,159,0.0,3.0,68,0.00,,,0.00,meteohub,2013-01-03 01:07:00,
2013-01-02 18:12:00,1.8,-4.9,31.12,SSE,159,1.0,4.0,73,0.00,,,0.00,meteohub,2013-01-03 01:12:00,
2013-01-02 18:17:00,1.6,-5.3,31.13,SSE,159,0.0,4.0,72,0.00,,,0.00,meteohub,2013-01-03 01:17:00,
2013-01-02 18:22:00,1.0,-5.8,31.13,SSE,159,0.0,2.0,72,0.00,,,0.00,meteohub,2013-01-03 01:22:00,
2013-01-02 18:27:00,0.7,-6.0,31.13,SSE,159,0.0,2.0,73,0.00,,,0.00,meteohub,2013-01-03 01:27:00,
2013-01-02 18:32:00,0.3,-6.0,31.13,SSE,159,0.0,2.0,74,0.00,,,0.00,meteohub,2013-01-03 01:32:00,
2013-01-02 18:37:00,0.3,-5.8,31.13,SSE,159,0.0,2.0,75,0.00,,,0.00,meteohub,2013-01-03 01:37:00,
2013-01-02 18:42:00,0.0,-6.3,31.14,SSE,159,0.0,2.0,74,0.00,,,0.00,meteohub,2013-01-03 01:42:00,
2013-01-02 18:47:00,-0.2,-6.0,31.14,SSE,159,0.0,2.0,76,0.00,,,0.00,meteohub,2013-01-03 01:47:00,
2013-01-02 18:52:00,0.0,-5.4,31.14,SSE,159,1.0,2.0,77,0.00,,,0.00,meteohub,2013-01-03 01:52:00,
2013-01-02 19:02:00,-0.4,-6.2,31.15,SSE,159,2.0,3.0,76,0.00,,,0.00,meteohub,2013-01-03 02:02:00,
2013-01-02 19:07:00,0.0,-5.1,31.15,SSE,159,0.0,3.0,79,0.00,,,0.00,meteohub,2013-01-03 02:07:00,
2013-01-02 19:12:00,0.0,-5.4,31.15,SSE,159,0.0,3.0,77,0.00,,,0.00,meteohub,2013-01-03 02:12:00,
2013-01-02 19:17:00,0.0,-5.8,31.15,SSE,159,0.0,3.0,76,0.00,,,0.00,meteohub,2013-01-03 02:17:00,
2013-01-02 19:22:00,0.0,-5.3,31.15,SSE,159,1.0,2.0,78,0.00,,,0.00,meteohub,2013-01-03 02:22:00,
2013-01-02 19:27:00,0.3,-4.9,31.15,SSE,159,0.0,2.0,78,0.00,,,0.00,meteohub,2013-01-03 02:27:00,
2013-01-02 19:37:00,-0.2,-6.0,31.15,SSE,159,0.0,2.0,76,0.00,,,0.00,meteohub,2013-01-03 02:37:00,
2013-01-02 19:42:00,-0.8,-6.7,31.15,SSE,159,0.0,2.0,75,0.00,,,0.00,meteohub,2013-01-03 02:42:00,
2013-01-02 19:52:00,-0.9,-6.2,31.16,SSE,159,0.0,2.0,78,0.00,,,0.00,meteohub,2013-01-03 02:52:00,
2013-01-02 19:57:00,-0.8,-6.0,31.15,SSE,159,0.0,3.0,78,0.00,,,0.00,meteohub,2013-01-03 02:57:00,
2013-01-02 20:02:00,-0.8,-6.0,31.16,SSE,159,0.0,3.0,78,0.00,,,0.00,meteohub,2013-01-03 03:02:00,
2013-01-02 20:07:00,-1.7,-7.6,31.16,SSE,159,0.0,1.0,75,0.00,,,0.00,meteohub,2013-01-03 03:07:00,
2013-01-02 20:17:00,-3.6,-9.6,31.16,SSE,159,0.0,2.0,75,0.00,,,0.00,meteohub,2013-01-03 03:17:00,
2013-01-02 20:27:00,-4.9,-9.8,31.16,West,259,0.0,2.0,79,0.00,,,0.00,meteohub,2013-01-03 03:27:00,
2013-01-02 20:32:00,-5.3,-10.1,31.16,West,259,0.0,2.0,79,0.00,,,0.00,meteohub,2013-01-03 03:32:00,
2013-01-02 20:47:00,-6.2,-10.3,31.17,West,259,0.0,1.0,82,0.00,,,0.00,meteohub,2013-01-03 03:47:00,
2013-01-02 20:52:00,-6.3,-10.3,31.17,West,259,0.0,1.0,82,0.00,,,0.00,meteohub,2013-01-03 03:52:00,
2013-01-02 20:57:00,-6.5,-10.5,31.17,West,259,0.0,1.0,82,0.00,,,0.00,meteohub,2013-01-03 03:57:00,
2013-01-02 21:07:00,-6.2,-9.4,31.18,West,259,1.0,1.0,85,0.00,,,0.00,meteohub,2013-01-03 04:07:00,
2013-01-02 21:12:00,-5.8,-9.2,31.18,West,259,0.0,1.0,85,0.00,,,0.00,meteohub,2013-01-03 04:12:00,
2013-01-02 21:22:00,-6.2,-10.5,31.18,West,259,0.0,1.0,81,0.00,,,0.00,meteohub,2013-01-03 04:22:00,
2013-01-02 21:27:00,-6.3,-10.3,31.19,West,259,0.0,1.0,82,0.00,,,0.00,meteohub,2013-01-03 04:27:00,
2013-01-02 21:32:00,-7.1,-11.9,31.19,West,259,0.0,0.0,79,0.00,,,0.00,meteohub,2013-01-03 04:32:00,
2013-01-02 21:42:00,-8.0,-12.3,31.19,West,259,0.0,1.0,81,0.00,,,0.00,meteohub,2013-01-03 04:42:00,
2013-01-02 21:47:00,-8.0,-11.7,31.19,West,259,0.0,0.0,83,0.00,,,0.00,meteohub,2013-01-03 04:47:00,
2013-01-02 21:52:00,-8.0,-11.9,31.19,West,259,1.0,1.0,82,0.00,,,0.00,meteohub,2013-01-03 04:52:00,
2013-01-02 21:57:00,-8.1,-12.1,31.19,West,259,0.0,1.0,82,0.00,,,0.00,meteohub,2013-01-03 04:57:00,
2013-01-02 22:07:00,-8.9,-13.5,31.20,West,259,0.0,1.0,79,0.00,,,0.00,meteohub,2013-01-03 05:07:00,
2013-01-02 22:12:00,-9.6,-14.3,31.20,West,259,0.0,1.0,79,0.00,,,0.00,meteohub,2013-01-03 05:12:00,
2013-01-02 22:17:00,-9.9,-14.4,31.21,West,259,0.0,1.0,80,0.00,,,0.00,meteohub,2013-01-03 05:17:00,
2013-01-02 22:22:00,-9.9,-13.9,31.21,West,259,0.0,0.0,82,0.00,,,0.00,meteohub,2013-01-03 05:22:00,
2013-01-02 22:27:00,-10.1,-14.1,31.21,West,259,0.0,0.0,82,0.00,,,0.00,meteohub,2013-01-03 05:27:00,
2013-01-02 22:32:00,-10.1,-13.9,31.22,West,259,0.0,0.0,83,0.00,,,0.00,meteohub,2013-01-03 05:32:00,
2013-01-02 22:37:00,-10.5,-14.4,31.22,West,259,0.0,1.0,82,0.00,,,0.00,meteohub,2013-01-03 05:37:00,
2013-01-02 22:42:00,-10.7,-14.4,31.22,West,259,0.0,1.0,83,0.00,,,0.00,meteohub,2013-01-03 05:42:00,
2013-01-02 22:47:00,-10.7,-14.4,31.23,West,259,0.0,1.0,83,0.00,,,0.00,meteohub,2013-01-03 05:47:00,
2013-01-02 22:52:00,-10.7,-14.4,31.23,West,259,0.0,1.0,83,0.00,,,0.00,meteohub,2013-01-03 05:52:00,
2013-01-02 22:57:00,-10.8,-14.6,31.23,West,259,0.0,1.0,83,0.00,,,0.00,meteohub,2013-01-03 05:57:00,
2013-01-02 23:02:00,-10.8,-14.8,31.23,West,259,0.0,1.0,82,0.00,,,0.00,meteohub,2013-01-03 06:02:00,
2013-01-02 23:07:00,-11.0,-15.0,31.23,West,259,0.0,1.0,82,0.00,,,0.00,meteohub,2013-01-03 06:07:00,
2013-01-02 23:12:00,-11.6,-16.1,31.23,West,259,0.0,1.0,80,0.00,,,0.00,meteohub,2013-01-03 06:12:00,
2013-01-02 23:17:00,-11.9,-16.1,31.23,West,259,0.0,0.0,81,0.00,,,0.00,meteohub,2013-01-03 06:17:00,
2013-01-02 23:22:00,-11.9,-15.9,31.23,West,259,0.0,0.0,82,0.00,,,0.00,meteohub,2013-01-03 06:22:00,
2013-01-02 23:27:00,-11.9,-15.9,31.23,West,259,0.0,0.0,82,0.00,,,0.00,meteohub,2013-01-03 06:27:00,
2013-01-02 23:32:00,-11.7,-15.2,31.23,West,259,1.0,1.0,84,0.00,,,0.00,meteohub,2013-01-03 06:32:00,
2013-01-02 23:37:00,-11.7,-15.5,31.23,West,259,0.0,1.0,83,0.00,,,0.00,meteohub,2013-01-03 06:37:00,
2013-01-02 23:42:00,-11.9,-16.1,31.23,West,259,0.0,1.0,81,0.00,,,0.00,meteohub,2013-01-03 06:42:00,
2013-01-02 23:52:00,-12.6,-17.3,31.23,West,259,0.0,0.0,79,0.00,,,0.00,meteohub,2013-01-03 06:52:00,
2013-01-02 23:57:00,-13.4,-18.0,31.23,West,259,0.0,0.0,79,0.00,,,0.00,meteohub,2013-01-03 06:57:00,